STARLINK-35497, 66241

Orbit data source: Space-Track

STARLINK-35497, 66241 is a payload satellite owned by SpaceX/Seattle (US) in LEO that was launched on Wed, 29 Oct 2025 UTC via an FALCON 9 launch vehicle from the Air Force Eastern Test Range (AFETR). Payload-class satellites include a variety of spacecraft equipped with specific instruments for various scientific and technological missions. These include communications satellites like Starlink; space stations such as the ISS; scientific satellites like the Hubble; Earth observation satellites from companies like Planet Labs, Umbra, and HawkEye 360; GPS; miniature CubeSats for education and research; and military/defense satellites.

Loading next visibility...
Identifier
66241, 2025-245H
Orbit
LEO
Country
Flag of USUS
Related business
Manufacturer
SpaceX/Seattle
Mission
Operational Commercial Communications
Bus & Motor
STARLINK V2MO, Unknown motor
Mass
575 kg wet, ~530 kg dry
Launch date (UTC)
2025-10-29 (8 months ago)
Launch vehicle
FALCON 9
Launch site
Air Force Eastern Test Range (AFETR)
Object type
Payload
Rocket body
Debris
Shape & HBR
Box + 2 Pan, 17.7 m
Radar Cross Section
36.964 m², Large (>1 m²)

Expand to show TLE details & history
Last TLE update: 17 hours ago

TLE from 17 hours ago
0 STARLINK-35497
1 66241U 25245H   26171.19182386  .00013346  00000-0  46181-3 0  9992
2 66241  53.1601 167.5267 0001261  87.2199 272.8946 15.30206962 36907
Epoch: 2026-06-20T04:36Z
TLE epoch observation values (Epoch: 2026-06-20T04:36:13.581Z)
Latitude
-0.00003°
Longitude
-169.93989°
Altitude
476.05 km
Speed
7.629 km/s
True Right ascension
11h 10m 06s
True Declination
0° 00' 00"
Sunlit
Object was in daylight at epoch
Visualization orbit readout
Latitude
Unknown
Longitude
Unknown
Altitude
Unknown
Speed
Unknown
Apparent Right ascension
Unknown
Apparent Declination
Unknown
Sunlit
N/A
Visualization observer readout
Local Sidereal Time
08:33:27
Azimuth
Unknown
Elevation
Unknown
Doppler factor
Unknown
Orbital elements
Apogee altitude
476.315 km
Perigee altitude
474.586 km
Semi-major axis
6,853.588 km
Eccentricity
0.00013
Inclination
53.1601°
RAAN
167.5267°
Arg. of periapsis
87.2199°
True anomaly
272.88017°
Mean anomaly
272.8946°
Eccentric anomaly
272.88738°
Mean motion
3.82531 °/min
Orbital period
94.11 mins
BSTAR
0.00046181
Loading maneuver chart data...
Computing Atmospheric mass density...
Loading historical data...
Loading historical data...
Loading historical data...
Loading historical data...
Loading historical data...
Loading historical data...
Loading historical data...

Documentation

Showing up to 5 results
|